FW1589 Weather Reports


Display with metric or nautical units.
time (UTC)temp
F
wind
direction
speed
MPH
gust
MPH
rain 1hr
in
rain 24hr
in
rain mn
in
humidity
%
barometer
mb
20260504021638 57 252 2.0 8.0 0.00 0.00 0.00 80 995.6
20260504021138 57 264 2.0 10.0 0.00 0.00 0.00 80 995.5
20260504020640 57 265 2.0 10.0 0.00 0.00 0.00 80 995.5
20260504020134 57 245 2.0 8.0 0.00 0.00 0.00 79 995.5
20260504015628 57 274 2.0 8.0 0.00 0.00 0.00 79 995.6
20260504014616 57 263 4.0 13.0 0.00 0.00 0.00 79 995.7
20260504014110 57 153 3.0 8.0 0.00 0.00 0.00 78 995.7
20260504013604 58 211 3.0 7.0 0.00 0.00 0.00 79 995.7
20260504013058 58 279 2.0 9.0 0.00 0.00 0.00 79 995.8
20260504012555 58 264 3.0 9.0 0.00 0.00 0.00 79 995.7
20260504012055 58 252 3.0 8.0 0.00 0.00 0.00 79 995.8
20260504011553 58 209 3.0 7.0 0.00 0.00 0.00 79 995.7
20260504010549 58 257 3.0 9.0 0.00 0.00 0.00 78 995.9
20260504010047 58 278 3.0 8.0 0.00 0.00 0.00 78 995.9
20260504005545 58 225 3.0 8.0 0.00 0.00 0.00 78 995.9
20260504005043 58 266 3.0 7.0 0.00 0.00 0.00 78 995.9
20260504004543 58 213 4.0 9.0 0.00 0.00 0.00 78 995.9
20260504004042 58 199 3.0 9.0 0.00 0.00 0.00 77 995.9
20260504003543 58 225 3.0 11.0 0.00 0.00 0.00 77 995.9
20260504003044 58 210 3.0 11.0 0.00 0.00 0.00 77 995.7
20260504002542 58 273 4.0 10.0 0.00 0.00 0.00 77 995.6
20260504002040 58 279 3.0 7.0 0.00 0.00 0.00 77 995.6
20260504001540 58 234 3.0 11.0 0.00 0.00 0.00 77 995.7
20260504001041 58 266 3.0 11.0 0.00 0.00 0.00 77 995.6
20260504000541 58 242 4.0 8.0 0.00 0.00 0.00 77 995.6
20260503235542 58 198 4.0 11.0 0.00 0.00 0.00 77 995.5
20260503235036 58 294 3.0 9.0 0.00 0.00 0.00 77 995.5
20260503234530 58 232 3.0 6.0 0.00 0.00 0.00 77 995.5
20260503234029 58 298 4.0 11.0 0.00 0.00 0.00 77 995.6
20260503233530 58 208 4.0 11.0 0.00 0.00 0.00 76 995.6
20260503232528 58 272 3.0 10.0 0.00 0.00 0.00 75 995.6
20260503232029 59 255 4.0 13.0 0.00 0.00 0.00 75 995.6
20260503231530 59 234 4.0 13.0 0.00 0.00 0.00 74 995.5
20260503230529 59 249 4.0 10.0 0.00 0.00 0.00 73 995.5
20260503224526 60 273 4.0 11.0 0.00 0.00 0.00 72 995.5
20260503224025 60 251 3.0 11.0 0.00 0.00 0.00 72 995.6
20260503223526 60 235 4.0 12.0 0.00 0.00 0.00 72 995.8
20260503223025 60 259 4.0 12.0 0.00 0.00 0.00 72 995.7
20260503222025 61 232 4.0 12.0 0.00 0.00 0.00 73 995.6
20260503221526 61 238 5.0 12.0 0.00 0.00 0.00 71 995.7
20260503220521 62 213 5.0 12.0 0.00 0.00 0.00 71 995.7
20260503220021 61 244 5.0 12.0 0.00 0.00 0.00 72 995.6
20260503215521 61 261 5.0 14.0 0.00 0.00 0.00 71 995.6
20260503215021 61 264 5.0 14.0 0.00 0.00 0.00 70 995.7
20260503214520 62 277 5.0 11.0 0.00 0.00 0.00 69 995.6
20260503214021 62 229 4.0 12.0 0.00 0.00 0.00 69 995.7
20260503213520 62 289 5.0 12.0 0.00 0.00 0.00 70 995.6
20260503213020 61 275 5.0 11.0 0.00 0.00 0.00 71 995.6
20260503212522 60 214 6.0 12.0 0.00 0.00 0.00 72 995.6
20260503212019 60 276 6.0 15.0 0.00 0.00 0.00 72 995.6
20260503211518 61 252 5.0 15.0 0.00 0.00 0.00 70 995.6
20260503211018 62 256 5.0 11.0 0.00 0.00 0.00 71 995.7
20260503210019 62 269 4.0 10.0 0.00 0.00 0.00 70 995.5
20260503205017 62 249 4.0 12.0 0.00 0.00 0.00 70 995.5
20260503204016 62 240 5.0 12.0 0.00 0.00 0.00 69 995.5
20260503203516 62 298 4.0 13.0 0.00 0.00 0.00 69 995.5
20260503203014 62 254 5.0 13.0 0.00 0.00 0.00 70 995.5
20260503202514 61 235 5.0 12.0 0.00 0.00 0.00 71 995.5
20260503202015 60 242 4.0 12.0 0.00 0.00 0.00 72 995.6
20260503201003 61 214 4.0 10.0 0.00 0.00 0.00 71 995.6
20260503200457 61 237 5.0 11.0 0.00 0.00 0.00 72 995.6
20260503195951 62 267 4.0 11.0 0.00 0.00 0.00 71 995.6
20260503195445 62 192 3.0 7.0 0.00 0.00 0.00 72 995.7
20260503194939 61 227 4.0 10.0 0.00 0.00 0.00 72 995.7
20260503194433 61 259 3.0 10.0 0.00 0.00 0.00 73 995.7
20260503193926 61 236 3.0 10.0 0.00 0.00 0.00 72 995.7
20260503193421 60 249 4.0 10.0 0.00 0.00 0.00 72 995.7
20260503192915 60 196 3.0 10.0 0.00 0.00 0.00 71 995.8
20260503192409 60 221 3.0 10.0 0.00 0.00 0.00 71 995.7
20260503191357 60 241 4.0 8.0 0.00 0.00 0.00 74 995.7
20260503190851 59 245 4.0 8.0 0.00 0.00 0.00 73 995.8
20260503190345 59 269 4.0 8.0 0.00 0.00 0.00 72 995.8
20260503185839 59 240 4.0 8.0 0.00 0.00 0.00 72 995.8
20260503184827 58 256 4.0 8.0 0.00 0.00 0.00 74 995.8
20260503183814 57 277 4.0 10.0 0.00 0.00 0.00 77 995.8
20260503183309 57 198 4.0 8.0 0.00 0.00 0.00 78 995.9
20260503182803 57 231 4.0 9.0 0.00 0.00 0.00 79 995.8
20260503182257 56 248 5.0 12.0 0.00 0.00 0.00 79 995.8
20260503181751 57 230 4.0 10.0 0.00 0.00 0.00 79 995.9
20260503181245 57 240 3.0 10.0 0.00 0.00 0.00 79 995.8
20260503180739 57 241 2.0 6.0 0.00 0.00 0.00 79 995.8
20260503180233 56 211 2.0 8.0 0.00 0.00 0.00 80 995.8
20260503175727 56 228 3.0 11.0 0.00 0.00 0.00 79 995.8
20260503175221 57 256 3.0 11.0 0.00 0.00 0.00 79 995.7
20260503174715 57 235 3.0 10.0 0.00 0.00 0.00 81 995.7
20260503174209 57 306 3.0 10.0 0.00 0.00 0.00 81 995.6
20260503173157 56 265 4.0 9.0 0.00 0.00 0.00 80 995.7
20260503172657 56 189 3.0 8.0 0.00 0.00 0.00 80 995.6
20260503172144 57 232 3.0 8.0 0.00 0.00 0.00 80 995.6
20260503171640 57 221 3.0 11.0 0.00 0.00 0.00 79 995.7
20260503171133 57 230 3.0 11.0 0.00 0.00 0.00 80 995.7
20260503170626 57 248 4.0 9.0 0.00 0.00 0.00 81 995.7
20260503170120 56 294 3.0 10.0 0.00 0.00 0.00 81 995.6
20260503150930 54 221 2.0 5.0 0.00 0.00 0.00 84 995.1
20260503150428 54 238 2.0 8.0 0.00 0.00 0.00 84 995.0
20260503130847 53 211 2.0 7.0 0.00 0.00 0.00 84 993.5
20260503130346 53 215 2.0 7.0 0.00 0.00 0.00 84 993.4
20260503110334 53 267 2.0 7.0 0.00 0.00 0.00 83 993.4
20260503090307 53 207 2.0 4.0 0.00 0.00 0.00 84 993.7
20260503080757 53 180 2.0 9.0 0.00 0.00 0.00 83 994.2
20260503080258 53 171 2.0 10.0 0.00 0.00 0.00 83 994.3
20260503072755 54 185 2.0 6.0 0.00 0.00 0.00 83 994.3
20260503072255 54 184 1.0 3.0 0.00 0.00 0.00 83 994.2
20260503071755 54 178 1.0 4.0 0.00 0.00 0.00 83 994.4
20260503071255 54 177 2.0 4.0 0.00 0.00 0.00 83 994.3
20260503070755 54 190 2.0 4.0 0.00 0.00 0.00 83 994.2
20260503070255 54 195 1.0 4.0 0.00 0.00 0.00 83 994.4
20260503060155 54 185 1.0 3.0 0.00 0.00 0.00 83 994.8
20260503054632 54 237 1.0 4.0 0.00 0.00 0.00 84 994.8
20260503054126 54 212 0.0 4.0 0.00 0.00 0.00 84 994.9
20260503053620 54 238 1.0 3.0 0.00 0.00 0.00 84 994.9
20260503053118 54 238 1.0 4.0 0.00 0.00 0.00 84 994.8
20260503052607 54 230 2.0 4.0 0.00 0.00 0.00 84 994.9
20260503052102 54 213 2.0 3.0 0.00 0.00 0.00 84 994.9
20260503051556 54 205 1.0 3.0 0.00 0.00 0.00 84 994.9
20260503051050 54 221 1.0 4.0 0.00 0.00 0.00 84 994.9
20260503050544 54 239 1.0 4.0 0.00 0.00 0.00 84 994.9
20260503050038 54 228 1.0 3.0 0.00 0.00 0.00 84 994.9
20260503045531 54 228 1.0 4.0 0.00 0.00 0.00 83 994.8
20260503045025 54 230 1.0 4.0 0.00 0.00 0.00 83 994.8
20260503044014 54 230 1.0 3.0 0.00 0.00 0.00 83 994.7
20260503043508 54 236 1.0 4.0 0.00 0.00 0.00 83 994.7
20260503043002 54 192 2.0 7.0 0.00 0.00 0.00 83 994.6
20260503042455 54 238 2.0 7.0 0.00 0.00 0.00 83 994.6
20260503041949 54 250 1.0 5.0 0.00 0.00 0.00 83 994.6
20260503041444 54 224 2.0 4.0 0.00 0.00 0.00 83 994.6
20260503035939 54 198 1.0 4.0 0.00 0.00 0.00 83 994.6
20260503035440 54 257 1.0 4.0 0.00 0.00 0.00 83 994.5
20260503034939 54 227 1.0 4.0 0.00 0.00 0.00 83 994.5
20260503034438 54 248 1.0 4.0 0.00 0.00 0.00 83 994.4
20260503033937 54 202 2.0 5.0 0.00 0.00 0.00 83 994.5
20260503033438 54 242 1.0 5.0 0.00 0.00 0.00 83 994.4
20260503032934 54 211 1.0 4.0 0.00 0.00 0.00 83 994.4
20260503032435 54 247 2.0 6.0 0.00 0.00 0.00 83 994.3
20260503031936 54 228 2.0 6.0 0.00 0.00 0.00 83 994.2
20260503031434 54 267 1.0 5.0 0.00 0.00 0.00 83 994.0
20260503030933 54 194 2.0 6.0 0.00 0.00 0.00 83 993.9
20260503030433 54 251 2.0 7.0 0.00 0.00 0.00 83 993.7
20260503025933 54 274 2.0 7.0 0.00 0.00 0.00 83 993.8
20260503024434 55 276 3.0 10.0 0.00 0.00 0.00 82 993.8
20260503023928 55 267 2.0 10.0 0.00 0.00 0.00 82 993.8
20260503023421 55 227 2.0 6.0 0.00 0.00 0.00 82 993.7
20260503022922 55 199 2.0 8.0 0.00 0.00 0.00 81 993.7